Watertown, WI

4:11 PM CST on February 24, 2017 (GMT -0600)
Watertown Municipal

Weather History for KRYV - October, 2013

Change the Weather History Date:

Saturday, October 26, 2013

  Actual Average Record
Temperature  
Mean Temperature 44 °F -  
Max Temperature 50 °F 56 °F 80 °F (1963)
Min Temperature 38 °F 37 °F 18 °F (1962)
Degree Days  
Heating Degree Days 21    
Moisture  
Dew Point 29 °F    
Average Humidity 54    
Maximum Humidity 69    
Minimum Humidity 43    
Precipitation  
Precipitation 0.00 in - - ()
Sea Level Pressure  
Sea Level Pressure 29.90 in    
Wind  
Wind Speed 14 mph (West)    
Max Wind Speed 23 mph    
Max Gust Speed 33 mph    
Visibility 10 miles    
Events      
Averages and records for this station are not official NWS values.
T = Trace of Precipitation, MM = Missing Value Source: NWS Daily Summary

Daily Weather History Graph

Daily Weather History Graph

Search for Another Location

Airport or City:

Trip Planner

Search our weather history database for the weather conditions in past years. The results will help you decide how hot, cold, wet, or windy it might be!

Date:

Astronomy

Oct. 26, 2013 Rise Set
Actual Time 7:22 AM CDT 5:54 PM CDT
Civil Twilight 6:53 AM CDT 6:23 PM CDT
Nautical Twilight 6:19 AM CDT 6:57 PM CDT
Astronomical Twilight 5:46 AM CDT 7:30 PM CDT
Moon No Moon Rise 1:39 PM CDT (10/26)
Length of Visible Light 11h 30m
Length of Day
10h 32m
Waning Gibbous, 53% of the Moon is Illuminated
Oct 26
Waning Gibbous
Oct 26
Last Quarter
Nov 3
New
Nov 9
First Quarter
Nov 17
Full

Hourly Weather History & Observations

Time (CDT) Temp. Windchill Dew Point Humidity Pressure Visibility Wind Dir Wind Speed Gust Speed Precip Events Conditions
12:15 AM 46.0 °F 38.5 °F 25.5 °F 45% 29.89 in 10.0 mi SW 19.6 mph 27.6 mph N/A   Overcast
12:35 AM 46.6 °F - 25.3 °F 43% 29.87 in 10.0 mi SW 18.4 mph 31.1 mph N/A   Overcast
12:55 AM 46.6 °F - 25.5 °F 44% 29.87 in 10.0 mi SW 23.0 mph 33.4 mph N/A   Overcast
1:15 AM 46.4 °F 39.0 °F 25.5 °F 44% 29.85 in 10.0 mi SW 19.6 mph 33.4 mph N/A   Overcast
1:35 AM 46.4 °F 39.2 °F 25.7 °F 44% 29.83 in 10.0 mi SW 18.4 mph 32.2 mph N/A   Mostly Cloudy
1:55 AM 46.0 °F 38.3 °F 25.7 °F 45% 29.82 in 10.0 mi SW 20.7 mph 29.9 mph N/A   Clear
2:15 AM 45.7 °F 38.0 °F 25.7 °F 46% 29.81 in 10.0 mi SW 19.6 mph 26.5 mph N/A   Mostly Cloudy
2:35 AM 45.9 °F 39.4 °F 26.1 °F 46% 29.81 in 10.0 mi SW 15.0 mph 27.6 mph N/A   Overcast
2:55 AM 45.7 °F 37.6 °F 26.2 °F 47% 29.80 in 10.0 mi SW 21.9 mph 29.9 mph N/A   Overcast
3:15 AM 45.5 °F 38.3 °F 26.4 °F 47% 29.79 in 10.0 mi WSW 17.3 mph 27.6 mph N/A   Overcast
3:35 AM 45.5 °F 38.3 °F 26.6 °F 48% 29.78 in 10.0 mi SW 17.3 mph 23.0 mph N/A   Overcast
3:55 AM 45.1 °F 38.4 °F 27.1 °F 49% 29.78 in 10.0 mi WSW 15.0 mph 27.6 mph N/A   Overcast
4:15 AM 44.8 °F 38.3 °F 27.3 °F 50% 29.78 in 10.0 mi SW 13.8 mph 20.7 mph N/A   Overcast
4:35 AM 43.7 °F 36.9 °F 27.3 °F 53% 29.77 in 10.0 mi SW 13.8 mph 19.6 mph N/A   Mostly Cloudy
4:55 AM 43.0 °F 36.8 °F 27.5 °F 54% 29.77 in 10.0 mi SW 11.5 mph 16.1 mph N/A   Scattered Clouds
5:15 AM 42.3 °F 35.5 °F 27.5 °F 56% 29.77 in 10.0 mi SW 12.7 mph 18.4 mph N/A   Clear
5:35 AM 42.3 °F 35.9 °F 28.0 °F 57% 29.77 in 10.0 mi WSW 11.5 mph - N/A   Clear
5:55 AM 42.1 °F 36.1 °F 28.4 °F 58% 29.77 in 10.0 mi SW 10.4 mph - N/A   Clear
6:15 AM 41.7 °F 36.7 °F 28.8 °F 60% 29.78 in 10.0 mi SW 8.1 mph - N/A   Clear
6:35 AM 41.4 °F 35.2 °F 29.1 °F 62% 29.78 in 10.0 mi WSW 10.4 mph - N/A   Clear
6:55 AM 41.0 °F 35.8 °F 29.5 °F 64% 29.78 in 10.0 mi SW 8.1 mph - N/A   Clear
7:15 AM 40.3 °F 36.3 °F 29.8 °F 66% 29.78 in 10.0 mi WSW 5.8 mph - N/A   Scattered Clouds
7:35 AM 41.0 °F 35.2 °F 30.6 °F 66% 29.78 in 10.0 mi WSW 9.2 mph - N/A   Mostly Cloudy
7:55 AM 41.2 °F 36.0 °F 31.1 °F 67% 29.78 in 10.0 mi WSW 8.1 mph - N/A   Scattered Clouds
8:15 AM 41.2 °F 36.0 °F 31.6 °F 69% 29.80 in 10.0 mi West 8.1 mph - N/A   Scattered Clouds
8:35 AM 42.1 °F 37.1 °F 32.0 °F 67% 29.80 in 10.0 mi West 8.1 mph - N/A   Scattered Clouds
8:55 AM 43.3 °F 37.7 °F 33.1 °F 67% 29.81 in 10.0 mi West 10.4 mph - N/A   Scattered Clouds
9:15 AM 44.1 °F 38.1 °F 33.8 °F 67% 29.81 in 10.0 mi WNW 11.5 mph 16.1 mph N/A   Mostly Cloudy
9:35 AM 45.9 °F 40.4 °F 34.5 °F 65% 29.82 in 10.0 mi WNW 11.5 mph - N/A   Mostly Cloudy
9:55 AM 47.7 °F - 34.9 °F 61% 29.82 in 10.0 mi NW 12.7 mph 23.0 mph N/A   Scattered Clouds
10:15 AM 48.7 °F - 33.8 °F 56% 29.83 in 10.0 mi NW 19.6 mph 26.5 mph N/A   Clear
10:35 AM 48.7 °F - 33.8 °F 56% 29.83 in 10.0 mi NNW 18.4 mph 26.5 mph N/A   Scattered Clouds
10:55 AM 49.5 °F - 33.1 °F 53% 29.84 in 10.0 mi NW 17.3 mph 26.5 mph N/A   Scattered Clouds
11:15 AM 48.7 °F - 32.0 °F 52% 29.86 in 10.0 mi NW 19.6 mph 25.3 mph N/A   Scattered Clouds
11:35 AM 49.5 °F - 31.6 °F 50% 29.86 in 10.0 mi NW 19.6 mph 27.6 mph N/A   Scattered Clouds
11:55 AM 48.7 °F - 30.9 °F 50% 29.87 in 10.0 mi NNW 16.1 mph 31.1 mph N/A   Mostly Cloudy
12:15 PM 47.8 °F - 31.3 °F 53% 29.88 in 10.0 mi NW 15.0 mph 26.5 mph N/A   Mostly Cloudy
12:35 PM 49.5 °F - 31.1 °F 49% 29.89 in 10.0 mi WNW 16.1 mph 25.3 mph N/A   Scattered Clouds
12:55 PM 49.1 °F - 29.8 °F 47% 29.89 in 10.0 mi NW 12.7 mph 26.5 mph N/A   Mostly Cloudy
1:15 PM 48.2 °F - 29.8 °F 49% 29.90 in 10.0 mi NW 16.1 mph 21.9 mph N/A   Overcast
1:35 PM 50.7 °F - 29.5 °F 44% 29.90 in 10.0 mi NW 18.4 mph 24.2 mph N/A   Overcast
1:55 PM 47.7 °F - 29.3 °F 49% 29.91 in 10.0 mi NW 16.1 mph 24.2 mph N/A   Overcast
2:15 PM 47.5 °F - 28.2 °F 47% 29.92 in 10.0 mi NW 18.4 mph 28.8 mph N/A   Overcast
2:35 PM 47.8 °F - 28.2 °F 47% 29.93 in 10.0 mi NW 15.0 mph 25.3 mph N/A   Mostly Cloudy
2:55 PM 47.1 °F - 27.0 °F 46% 29.94 in 10.0 mi NW 13.8 mph 24.2 mph N/A   Scattered Clouds
3:15 PM 48.4 °F - 27.5 °F 44% 29.94 in 10.0 mi NW 17.3 mph 25.3 mph N/A   Mostly Cloudy
3:35 PM 49.5 °F - 29.8 °F 47% 29.95 in 10.0 mi NNW 13.8 mph 20.7 mph N/A   Mostly Cloudy
3:55 PM 49.1 °F - 29.3 °F 46% 29.96 in 10.0 mi NNW 12.7 mph 21.9 mph N/A   Scattered Clouds
4:15 PM 49.6 °F - 29.3 °F 46% 29.96 in 10.0 mi WNW 13.8 mph 21.9 mph N/A   Mostly Cloudy
4:35 PM 47.5 °F - 27.7 °F 46% 29.98 in 10.0 mi NW 12.7 mph - N/A   Overcast
4:55 PM 46.6 °F - 27.3 °F 47% 29.98 in 10.0 mi NW 11.5 mph 16.1 mph N/A   Scattered Clouds
5:15 PM 46.6 °F - 27.3 °F 47% 29.98 in 10.0 mi WNW 8.1 mph - N/A   Scattered Clouds
5:35 PM 45.7 °F 41.5 °F 27.3 °F 49% 29.99 in 10.0 mi WNW 8.1 mph - N/A   Mostly Cloudy
5:55 PM 45.0 °F 40.1 °F 27.1 °F 50% 30.00 in 10.0 mi WNW 9.2 mph - N/A   Mostly Cloudy
6:15 PM 45.0 °F 41.2 °F 27.0 °F 49% 30.00 in 10.0 mi WNW 6.9 mph - N/A   Overcast
6:35 PM 44.6 °F 41.4 °F 27.3 °F 51% 30.01 in 10.0 mi WNW 5.8 mph - N/A   Overcast
6:55 PM 44.2 °F 41.0 °F 27.3 °F 51% 30.02 in 10.0 mi WNW 5.8 mph - N/A   Overcast
7:15 PM 44.1 °F 41.5 °F 27.3 °F 52% 30.03 in 10.0 mi WNW 4.6 mph - N/A   Overcast
7:35 PM 43.5 °F 41.9 °F 27.9 °F 54% 30.03 in 10.0 mi West 3.5 mph - N/A   Overcast
7:55 PM 43.0 °F 41.3 °F 27.9 °F 55% 30.04 in 10.0 mi West 3.5 mph - N/A   Overcast
8:15 PM 42.4 °F 39.6 °F 28.4 °F 58% 30.04 in 10.0 mi WNW 4.6 mph - N/A   Overcast
8:35 PM 43.2 °F 40.5 °F 28.0 °F 55% 30.04 in 10.0 mi WNW 4.6 mph - N/A   Overcast
8:55 PM 43.0 °F - 28.2 °F 56% 30.05 in 10.0 mi Calm Calm - N/A   Overcast
9:15 PM 42.8 °F 41.1 °F 28.6 °F 57% 30.05 in 10.0 mi West 3.5 mph - N/A   Overcast
9:35 PM 42.3 °F - 28.9 °F 59% 30.05 in 10.0 mi Calm Calm - N/A   Overcast
9:55 PM 41.5 °F 39.6 °F 28.4 °F 60% 30.05 in 10.0 mi West 3.5 mph - N/A   Overcast
10:15 PM 40.1 °F 38.0 °F 28.4 °F 63% 30.05 in 10.0 mi WSW 3.5 mph - N/A   Overcast
10:35 PM 39.6 °F 37.4 °F 28.6 °F 65% 30.04 in 10.0 mi SW 3.5 mph - N/A   Scattered Clouds
10:55 PM 38.7 °F 36.3 °F 28.4 °F 67% 30.05 in 10.0 mi WSW 3.5 mph - N/A   Clear
11:15 PM 39.2 °F 37.0 °F 28.4 °F 65% 30.04 in 10.0 mi WSW 3.5 mph - N/A   Clear
11:35 PM 38.7 °F 36.3 °F 28.6 °F 67% 30.04 in 10.0 mi WSW 3.5 mph - N/A   Clear
11:55 PM 38.3 °F - 28.4 °F 68% 30.05 in 10.0 mi Calm Calm - N/A   Clear